Location: Congrier
(47.8099°N, 1.1170°W)
Time: 19:10:14
(UTC+00:00)

Daily predictions for brighter satellites

Satellite Brightness Start Highest point End
(mag) Time Altitude Azimuth Time Altitude Azimuth Time Altitude Azimuth
ATLAS 2AS CENTAUR R/B 3.7 17:20:51 10° NW 17:27:01 29° NNE 17:32:52 10° E
Cosmos 2279 Rocket 4.1 17:24:58 10° S 17:31:01 59° E 17:37:05 10° NNE
USA 215 4.1 17:26:01 10° SSE 17:32:25 55° SW 17:38:51 10° WNW
H-2A R/B 3.8 17:28:35 10° SSW 17:33:21 38° W 17:38:16 10° NNW
ISS -3.0 17:30:22 10° WNW 17:33:36 41° N 17:36:50 10° ENE
AQUARIUS 4.2 17:32:05 10° SSE 17:36:34 88° WSW 17:41:05 10° NNW
CZ-4B R/B 4.3 17:33:25 10° ESE 17:37:23 22° ENE 17:41:24 10° N
Cosmos 1455 Rocket 3.0 17:34:02 10° N 17:38:25 81° ENE 17:42:45 10° SSE
SJ-11-01 4.4 17:34:19 10° SSE 17:39:00 84° WSW 17:43:45 10° NNW
ATLAS CENTAUR R/B 3.0 17:38:04 10° SSE 17:41:42 22° ESE 17:45:16 10° ENE
Cosmos 614 Rocket 4.0 17:36:43 10° SSW 17:41:55 74° ESE 17:47:07 10° NNE
Cosmos 1867 3.6 17:36:26 10° NW 17:41:55 71° NE 17:47:21 10° SE
SMAP 3.6 17:37:52 10° S 17:42:28 65° WSW 17:47:08 10° NNW
Cosmos 1269 Rocket 4.2 17:38:44 10° SSW 17:44:01 81° WNW 17:49:22 10° NNE
NOSS 3-4 (A) 3.9 17:37:07 10° NW 17:44:02 86° NE 17:51:57 10° SE
NOSS 3-4 (C) 3.9 17:37:14 10° NW 17:44:08 86° NE 17:52:03 10° SE
Cosmos 1844 Rocket 4.3 17:42:56 10° N 17:46:16 16° NE 17:49:18 11° ENE
Cosmos 2360 4.3 17:41:15 10° SSW 17:46:56 90° WNW 17:52:40 10° NNE
SKYMED 2 4.0 17:46:12 10° NNE 17:50:19 40° E 17:54:24 10° SSE
NOAA 6 4.0 17:46:23 10° SSE 17:51:31 85° ENE 17:56:43 10° NNW
Tiangong 0.2 17:49:57 10° WSW 17:52:24 20° SSW 17:54:50 10° SE
NOSS 3-3 (A) 4.5 17:47:19 10° WSW 17:52:55 55° NW 17:59:28 10° NE
NOSS 3-3 (C) 4.5 17:47:24 10° WSW 17:53:00 56° NW 17:59:33 10° NE
Meteor 2-17 Rocket 4.5 17:47:51 10° N 17:53:59 63° ENE 18:00:05 10° SSE
SL-4 R/B 2.0 17:52:24 10° SW 17:55:45 50° SSE 17:58:33 15° ENE
Cosmos 1340 Rocket 3.7 17:55:31 10° SSE 17:58:47 27° E 18:02:06 10° NNE
Cosmos 1408 3.8 17:56:58 10° SE 17:59:23 18° E 18:00:40 15° ENE
USA 290 3.4 17:57:48 10° SSE 18:00:27 24° ESE 18:02:01 17° ENE
ADEOS 4.1 17:57:00 10° S 18:02:10 64° WSW 18:07:22 10° NNW
BREEZE-M DEB (TANK) 2.7 17:59:46 10° WSW 18:02:42 61° SSE 18:07:22 14° E
Cosmos 1238 Rocket 3.7 18:02:25 10° NNW 18:06:54 70° W 18:12:14 10° S
Cosmos 1455 4.4 18:05:05 10° NNW 18:08:22 28° W 18:11:38 10° SSW
PAYLOAD B 4.4 18:03:17 10° SE 18:08:36 50° ENE 18:13:55 10° N
YAOGAN 1 3.1 18:05:48 10° SE 18:09:42 35° ENE 18:13:38 10° N
Cosmos 1655 Rocket 4.0 18:03:30 10° N 18:09:44 61° ENE 18:15:53 10° SSE
NOSS 2-1 (E) 3.9 18:05:33 10° NW 18:09:46 59° NE 18:15:44 10° SE
Cosmos 2322 Rocket 3.9 18:07:24 10° ESE 18:09:28 13° E 18:09:28 13° E
Cosmos 1607 4.2 18:05:01 10° S 18:10:50 49° ESE 18:16:06 13° NE
Cosmos 1140 Rocket 3.9 18:06:13 10° S 18:11:04 42° ESE 18:15:55 10° NE
Cosmos 1703 3.2 18:08:12 10° S 18:12:02 89° W 18:15:53 10° N
Cosmos 2227 Rocket 3.9 18:07:09 10° NW 18:12:18 36° WSW 18:17:25 10° S
Cosmos 1975 Rocket 3.9 18:11:20 10° SSW 18:15:43 54° WNW 18:20:06 10° N
CZ-4 R/B 2.4 18:12:51 10° ESE 18:16:18 26° ENE 18:19:43 10° N
Cosmos 1184 Rocket 3.5 18:15:28 10° N 18:16:38 22° NNE 18:16:38 22° NNE
Cosmos 1025 Rocket 4.2 18:15:18 10° SSW 18:19:23 44° WNW 18:23:30 10° N
Cosmos 1536 Rocket 3.7 18:15:19 10° SSE 18:19:27 48° E 18:23:38 10° NNE
SL-16 R/B 3.3 18:15:26 10° SSE 18:19:48 23° ESE 18:21:31 20° ENE
COSMOS 2455 2.8 18:16:15 10° SSW 18:22:15 80° ESE 18:28:07 11° NE
CZ-4 R/B 4.5 18:20:37 10° SSE 18:24:44 82° WSW 18:28:52 10° NNW
Cosmos 2369 3.7 18:22:40 10° SSW 18:28:20 87° WNW 18:34:03 10° NNE
Cosmos 44 3.0 18:24:17 10° SW 18:28:37 81° NW 18:32:00 17° NE
Cosmos 1892 3.5 18:26:35 10° SSE 18:29:27 28° ESE 18:29:27 28° ESE
YAOGAN 3 4.5 18:25:49 10° SSE 18:30:10 84° ENE 18:34:33 10° NNW
Cosmos 1606 Rocket 4.1 18:29:33 10° N 18:33:30 34° ENE 18:35:45 21° SE
RESURS DK-1 4.5 18:32:14 10° N 18:33:19 13° NNE 18:33:19 13° NNE
Cosmos 2251 Rocket 3.5 18:29:21 10° SSW 18:34:41 78° ESE 18:40:04 10° NNE
COSMO-SKYMED 1 2.9 18:34:06 10° N 18:38:27 67° WNW 18:42:44 10° SSW
Cosmos 1980 Rocket 2.4 18:34:00 10° SSW 18:39:39 74° WNW 18:45:22 10° NNE
Lacrosse 5 3.6 18:40:06 10° SSE 18:42:20 16° SE 18:42:20 16° SE
Cosmos 1241 Rocket 4.5 18:37:49 10° SSW 18:44:15 71° ESE 18:49:05 19° NE
Cosmos 1328 3.6 18:41:03 10° S 18:45:01 76° E 18:48:48 11° NNE
BlueWalker 3 1.9 18:41:46 10° WSW 18:45:38 80° NNW 18:46:49 43° NE
Cosmos 1697 Rocket 4.1 18:42:44 10° WSW 18:47:57 37° NW 18:53:11 10° NNE
Lacrosse 5 rocket 2.7 18:45:33 10° NW 18:48:18 20° N 18:48:24 20° NNE
PSLV R/B 3.6 18:45:55 10° S 18:49:33 81° WSW 18:53:14 10° NNW
CSL-04 Rocket 4.3 18:50:17 31° ENE 18:50:17 31° ENE 18:54:46 10° N
Okean O Rocket 1.6 18:47:21 12° SSE 18:51:18 54° ENE 18:55:37 10° N
Feng Yun 1-1 Rocket 4.3 18:48:51 10° SE 18:54:20 56° ENE 18:59:43 10° N
NOSS 2-1 (C) 4.4 18:53:05 10° NW 18:57:28 63° SW 19:03:41 10° SSE
Cosmos 2263 Rocket 2.9 18:52:40 10° NW 18:58:06 55° WSW 19:03:30 10° S
CZ-4C R/B 4.4 18:54:49 10° N 18:58:39 44° WNW 19:02:16 10° SW
Timation 2 Rocket 4.1 18:52:39 10° NNW 18:58:50 79° WSW 19:05:15 10° SSE
MINOTAUR 4 R/B 3.7 18:59:27 81° E 18:59:31 81° ESE 19:02:55 10° SSW
ATLAS 5 CENTAUR R/B 3.7 18:56:58 10° WNW 18:59:33 16° NNW 19:01:38 12° N
BREEZE M DEB (TANK) 3.5 18:56:12 10° WNW 19:00:40 39° SW 19:01:26 31° S
Cosmos 1553 Rocket 4.2 18:55:51 10° SSE 19:01:28 41° E 19:07:09 10° NNE
Cosmos 2228 3.2 18:58:52 10° NNW 19:03:06 68° W 19:07:16 10° S
Cosmos 1763 Rocket 3.5 18:59:41 10° NNW 19:04:50 57° ENE 19:05:58 46° ESE
Cosmos 1726 Rocket 4.0 19:03:57 10° N 19:07:07 43° NNE 19:07:07 43° NNE
ISS -3.1 19:07:15 10° WNW 19:09:56 52° NW 19:09:56 52° NW
IRIDIUM 106 4.3 19:06:16 10° N 19:11:25 56° E 19:12:35 46° SE
SL-08 R/B 4.5 19:06:44 10° N 19:12:52 57° ENE 19:17:35 18° SSE
CZ-4B R/B 3.4 19:12:10 10° S 19:17:27 67° WSW 19:22:50 10° NNW
ATLAS 2AS CENTAUR R/B 2.6 19:12:01 10° NW 19:19:08 74° NE 19:21:32 43° ESE
Cosmos 676 Rocket 4.3 19:14:08 10° S 19:18:23 47° SE 19:18:23 47° SE
ATLAS CENTAUR R/B 2.0 19:15:16 10° SW 19:19:57 61° NW 19:21:07 45° N
Cosmos 407 Rocket 4.0 19:22:14 10° SW 19:27:18 56° WNW 19:30:29 22° N
Cosmos 1844 3.9 19:22:12 10° NNW 19:27:33 54° NE 19:27:33 54° NE
Nadezhda 2 Rocket 4.4 19:21:54 10° N 19:28:11 87° W 19:34:19 10° S
Cosmos 2278 4.1 19:25:17 10° SW 19:30:52 60° WNW 19:34:06 26° NNE
Cosmos 1844 Rocket 2.6 19:25:45 10° NNW 19:31:01 64° NE 19:31:01 64° NE
Cosmos 1408 4.4 19:30:43 10° SW 19:33:40 27° WNW 19:34:31 24° NW
SL-4 R/B 3.2 19:31:34 10° W 19:33:53 35° WNW 19:33:53 35° WNW
Cosmos 540 Rocket 3.9 19:31:31 10° NNW 19:35:25 49° N 19:35:25 49° N
Cosmos 1190 Rocket 4.3 19:35:45 10° SSW 19:41:02 67° WNW 19:42:31 46° N
Cosmos 2360 Rocket 3.9 19:39:40 10° S 19:41:22 20° S 19:41:22 20° S
Cosmos 2278 Rocket 4.3 19:42:27 10° N 19:43:40 14° N 19:43:40 14° N
Meteor 1-27 4.2 19:43:42 10° NNW 19:49:34 87° W 19:49:42 85° SSW
CZ-4 R/B 3.1 19:47:17 10° SSW 19:51:03 33° W 19:54:49 10° NNW
Cosmos 2322 Rocket 2.7 19:47:24 10° SSW 19:51:22 48° SSW 19:51:22 48° SSW
SL-16 R/B 2.5 19:57:48 10° SW 20:03:25 63° WNW 20:03:27 63° WNW
Lacrosse 5 4.1 20:20:21 10° SW 20:21:35 18° SW 20:21:35 18° SW
Okean O Rocket 4.2 20:25:01 10° SW 20:27:59 18° W 20:30:57 10° NW
ATLAS 2AS CENTAUR R/B 4.3 21:03:46 10° WNW 21:09:01 27° WSW 21:09:01 27° WSW
